Regional Weather Roundup
Issued by NWS

Home | Current Version | Previous Version | Graphics & Text | Print | Product List | Glossary On
Versions: 1 2 3 4 5 6 7 8 9 10 11 12 13 14 15 16 17 18 19 20 21 22 23 24 25 26 27 28 29 30 31 32 33 34 35 36 37 38 39 40 41 42 43 44 45 46 47 48 49 50
000
ASUS45 KSLC 231710
RWRUT

UTAH REGIONAL WEATHER ROUNDUP
NATIONAL WEATHER SERVICE SALT LAKE CITY UT
1000 AM MST MON JAN 23 2017

UTZ001>011-023>025-231800-

NORTHERN UTAH

CITY           SKY/WX    TMP DP  RH WIND       PRES   REMARKS
BRIGHAM CITY     N/A     38  32  81 S17G23    29.49S WCI  28
DUGWAY         LGT SNOW  34  32  92 SW13G22   29.51R WCI  25
HILL AFB       CLOUDY    37  32  81 S13       29.46F WCI  29
LOGAN          LGT SNOW  31  31 100 CALM      29.47F FOG
OGDEN          CLOUDY    37  32  82 S6        29.46F WCI  32
SALT LAKE CITY LGT RAIN  38  33  82 S20G29    29.48S WCI  28
TOOELE VALLEY  CLOUDY    39  34  81 SW7       29.45F WCI  34
WENDOVER       CLOUDY    32  32 100 CALM      29.47F
HEBER CITY     SNOW      32  28  86 SE10      29.47F VSB 1/2 WCI  24
WEST JORDAN    CLOUDY    35  35 100 SE23G29   29.48F WCI  23

$$

UTZ011>015-024>027-231800-

CENTRAL/NORTHEAST UTAH

CITY           SKY/WX    TMP DP  RH WIND       PRES   REMARKS
PROVO AIRPORT  LGT SNOW  34  30  86 W13       29.57R VSB 3/4 WCI  25
MOAB/CANYONLAN MOSUNNY   39  31  72 SE12      29.63F WCI  32
DELTA          CLOUDY    32  32 100 SW18G33   29.56S VSB 3/4 WCI  20
PRICE          SNOW      30  30 100 E6        29.58F VSB 1/2 WCI  24
RICHFIELD      FOG       36  34  93 SW32G51   29.59R VSB 1/4 WCI  22
ROOSEVELT      LGT SNOW  28  27  93 CALM      29.64F VSB 1
VERNAL         NOT AVBL

$$

UTZ013>016-019>022-027-231800-

SOUTHERN UTAH

CITY           SKY/WX    TMP DP  RH WIND       PRES   REMARKS
BRYCE CANYON   FOG       29  27  92 S21       29.61R VSB<1/4 WCI  16
CEDAR CITY     MOSUNNY   33  28  81 S18G26    29.61S WCI  22
MILFORD        PTSUNNY   36  30  79 SW28G36   29.58F WCI  23
ST GEORGE      CLOUDY    46  28  49 SW24G32   29.71R
HANKSVILLE     CLOUDY    43  32  65 MISG      29.65R
BLANDING       CLOUDY    32  30  93 SE8       29.86F WCI  24

$$

REGIONAL REPORTS     COLORADO/ARIZONA

CITY           SKY/WX    TMP DP  RH WIND       PRES   REMARKS
CRAIG, CO      CLOUDY    32  24  72 E6        29.64F WCI  26
GRAND JUNCTION CLOUDY    43  31  62 S21       29.68F
RIFLE, CO      CLOUDY    35  30  82 E5        29.69F WCI  31
MONTROSE, CO   CLOUDY    44  28  53 SW17G31   29.71F
CORTEZ, CO     CLOUDY    37  29  72 SE10      29.84F WCI  30
COLORADO CITY  LGT SNOW  34  34 100 W20G30    29.75R WCI  22
PAGE, AZ       MOSUNNY   46  31  55 S21G30    29.66F
GRAND CANYON   LGT SNOW  32  32 100 SW25G45   29.76S FOG     WCI  19
KINGMAN, AZ      N/A     46  38  73 S32G40    29.80R
FLAGSTAFF, AZ  SNOW      30  30 100 SW23G41   29.79R VSB 1/4 WCI  17

$$

REGIONAL REPORTS    NEVADA/IDAHO/WYOMING

CITY           SKY/WX    TMP DP  RH WIND       PRES   REMARKS
LAS VEGAS, NV  PTSUNNY   48  30  49 S16G24    29.76R
ELY, NY        SNOW      27  25  92 W5        29.56R VSB 1/2 WCI  22
ELKO, NV       CLOUDY    31  26  82 SW10      29.57R WCI  22
POCATELLO, ID  SNOW      31  30  96 NE9       29.48F VSB 1/2 WCI  23
BURLEY, ID     CLOUDY    33  30  88 E8        29.46S WCI  26
FORT BRIDGER,  LGT SNOW  20  20 100 NW5       29.54F WCI  13
EVANSTON, WY   CLOUDY    24  20  84 E8        29.47F WCI  15
ROCK SPRINGS,  CLOUDY    30  22  72 S10       29.55F WCI  21

$$



USA.gov is the U.S. government's official web portal to all federal, state and local government web resources and services.